AUA4QK LIPQ-LOWW

Flight info

Callsign AUA4QK
Flight time 0h 38m
Altitude 25000
Route LUPIN DCT ABTAN ABTAN2W
Aircraft A20N/M-SDE2E3FGHIRWXY/LB1

Departure

Time 2026-05-04 09:08
Airport Trieste Airport (LIPQ)

Arrival

Time 2026-05-04 09:46
Airport Vienna International Airport (LOWW)
Time Latitude Longitude Altitude Speed Heading
2026-05-04 08:57 45.82222 13.48537 30 ft 0 kts 168°
2026-05-04 09:05 45.82218 13.48537 30 ft 0 kts 193°
2026-05-04 09:05 45.82217 13.48530 30 ft 0 kts 275°
2026-05-04 09:05 45.82223 13.48525 30 ft 1 kts 342°
2026-05-04 09:05 45.82240 13.48519 30 ft 3 kts 350°
2026-05-04 09:06 45.82271 13.48524 31 ft 5 kts 23°
2026-05-04 09:07 45.82778 13.48448 35 ft 12 kts 269°
2026-05-04 09:08 45.82780 13.47954 38 ft 94 kts 270°
2026-05-04 09:08 45.82785 13.46586 47 ft 169 kts 269°
2026-05-04 09:08 45.82785 13.44836 679 ft 183 kts 268°
2026-05-04 09:08 45.82799 13.42924 1471 ft 200 kts 276°
2026-05-04 09:09 45.83440 13.41067 2181 ft 226 kts 318°
2026-05-04 09:09 45.84920 13.40125 2952 ft 250 kts 355°
2026-05-04 09:09 45.86691 13.40376 3716 ft 274 kts
2026-05-04 09:09 45.88663 13.40834 4474 ft 300 kts
2026-05-04 09:10 45.90840 13.41120 5230 ft 326 kts
2026-05-04 09:10 45.93180 13.41230 5978 ft 351 kts 359°
2026-05-04 09:10 45.95726 13.41243 6733 ft 369 kts 358°
2026-05-04 09:10 45.98352 13.41298 7468 ft 379 kts
2026-05-04 09:11 46.00969 13.42086 8193 ft 389 kts 17°
2026-05-04 09:11 46.03462 13.43776 8919 ft 398 kts 30°
2026-05-04 09:11 46.05851 13.46000 9676 ft 405 kts 33°
2026-05-04 09:11 46.08232 13.48314 10442 ft 410 kts 33°
2026-05-04 09:12 46.10597 13.50623 11167 ft 414 kts 33°
2026-05-04 09:12 46.13046 13.52990 11920 ft 418 kts 33°
2026-05-04 09:14 46.30369 13.69709 17245 ft 431 kts 34°
2026-05-04 09:14 46.32880 13.72150 18012 ft 431 kts 34°
2026-05-04 09:14 46.35381 13.74580 18771 ft 431 kts 34°
2026-05-04 09:14 46.37895 13.77026 19458 ft 437 kts 34°
2026-05-04 09:15 46.40470 13.79532 20095 ft 445 kts 34°
2026-05-04 09:15 46.43075 13.82067 20720 ft 452 kts 34°
2026-05-04 09:15 46.45716 13.84639 21359 ft 458 kts 34°
2026-05-04 09:15 46.48364 13.87220 21988 ft 463 kts 34°
2026-05-04 09:17 46.70152 14.08558 25117 ft 494 kts 33°
2026-05-04 09:18 46.72995 14.11358 25120 ft 495 kts 33°
2026-05-04 09:18 46.75887 14.14212 25116 ft 496 kts 33°
2026-05-04 09:18 46.78752 14.17044 25115 ft 496 kts 33°
2026-05-04 09:18 46.81649 14.19910 25113 ft 496 kts 33°
2026-05-04 09:19 46.84500 14.22735 25117 ft 496 kts 33°
2026-05-04 09:19 46.87388 14.25600 25118 ft 495 kts 33°
2026-05-04 09:19 46.90306 14.28499 25114 ft 495 kts 33°
2026-05-04 09:19 46.93165 14.31345 25114 ft 495 kts 33°
2026-05-04 09:20 46.96076 14.34246 25117 ft 495 kts 33°
2026-05-04 09:20 46.98936 14.37102 25118 ft 495 kts 33°
2026-05-04 09:20 47.01833 14.39997 25115 ft 495 kts 33°
2026-05-04 09:20 47.04680 14.42847 25115 ft 495 kts 33°
2026-05-04 09:21 47.07542 14.45747 25110 ft 495 kts 35°
2026-05-04 09:21 47.10074 14.49278 25088 ft 497 kts 50°
2026-05-04 09:21 47.11938 14.53653 25092 ft 498 kts 64°
2026-05-04 09:21 47.13062 14.58538 25099 ft 499 kts 74°
2026-05-04 09:22 47.13910 14.63561 24769 ft 499 kts 76°
2026-05-04 09:22 47.14710 14.68545 24110 ft 492 kts 77°
2026-05-04 09:22 47.15503 14.73406 23466 ft 487 kts 76°
2026-05-04 09:22 47.16726 14.78119 22791 ft 481 kts 59°
2026-05-04 09:23 47.18870 14.81869 22193 ft 475 kts 41°
2026-05-04 09:23 47.21444 14.85060 21677 ft 474 kts 40°
2026-05-04 09:23 47.23962 14.88207 21180 ft 471 kts 40°
2026-05-04 09:23 47.26466 14.91405 20652 ft 468 kts 41°
2026-05-04 09:25 47.43543 15.14098 20084 ft 467 kts 42°
2026-05-04 09:25 47.45980 15.17377 19919 ft 468 kts 42°
2026-05-04 09:26 47.48395 15.20631 19402 ft 464 kts 43°
2026-05-04 09:26 47.50777 15.23843 18902 ft 461 kts 43°
2026-05-04 09:26 47.53187 15.27099 18387 ft 459 kts 43°
2026-05-04 09:26 47.55562 15.30312 17876 ft 456 kts 43°
2026-05-04 09:27 47.57908 15.33491 17363 ft 454 kts 43°
2026-05-04 09:27 47.60247 15.36665 16852 ft 451 kts 43°
2026-05-04 09:27 47.62571 15.39822 16346 ft 448 kts 43°
2026-05-04 09:27 47.64919 15.43015 15829 ft 444 kts 43°
2026-05-04 09:28 47.67209 15.46134 15324 ft 442 kts 43°
2026-05-04 09:28 47.69503 15.49262 14810 ft 439 kts 43°
2026-05-04 09:28 47.71751 15.52330 14305 ft 435 kts 43°
2026-05-04 09:28 47.74001 15.55404 13798 ft 432 kts 43°
2026-05-04 09:29 47.76205 15.58421 13295 ft 429 kts 43°
2026-05-04 09:29 47.78441 15.61486 12789 ft 426 kts 43°
2026-05-04 09:29 47.80616 15.64470 12290 ft 423 kts 43°
2026-05-04 09:29 47.82817 15.67499 11780 ft 420 kts 44°
2026-05-04 09:30 47.84989 15.70502 11272 ft 417 kts 44°
2026-05-04 09:30 47.87143 15.73480 10766 ft 414 kts 44°
2026-05-04 09:30 47.89245 15.76384 10275 ft 411 kts 44°
2026-05-04 09:30 47.91352 15.79297 9777 ft 408 kts 44°
2026-05-04 09:31 47.93431 15.82172 9285 ft 406 kts 44°
2026-05-04 09:31 47.95528 15.85073 8784 ft 402 kts 43°
2026-05-04 09:31 47.97575 15.87910 8291 ft 398 kts 43°
2026-05-04 09:31 47.99601 15.90721 7802 ft 394 kts 43°
2026-05-04 09:32 48.01625 15.93531 7301 ft 390 kts 43°
2026-05-04 09:32 48.03609 15.96288 6812 ft 386 kts 43°
2026-05-04 09:34 48.16331 16.13981 4967 ft 294 kts 43°
2026-05-04 09:34 48.17791 16.16020 4968 ft 276 kts 43°
2026-05-04 09:34 48.19192 16.17978 4976 ft 272 kts 43°
2026-05-04 09:34 48.20587 16.19935 4980 ft 272 kts 43°
2026-05-04 09:35 48.21975 16.21883 4979 ft 272 kts 43°
2026-05-04 09:35 48.23367 16.23838 4982 ft 272 kts 43°
2026-05-04 09:35 48.24754 16.25789 4980 ft 272 kts 43°
2026-05-04 09:35 48.26138 16.27735 4979 ft 273 kts 43°
2026-05-04 09:37 48.36116 16.41192 4967 ft 275 kts 19°
2026-05-04 09:37 48.37999 16.41558 4971 ft 276 kts 353°
2026-05-04 09:38 48.39880 16.41057 4979 ft 277 kts 346°
2026-05-04 09:38 48.41787 16.40479 4972 ft 278 kts 355°
2026-05-04 09:38 48.43684 16.40914 4970 ft 277 kts 23°
2026-05-04 09:38 48.45232 16.42578 4976 ft 276 kts 51°
2026-05-04 09:39 48.46108 16.45117 4976 ft 273 kts 79°
2026-05-04 09:39 48.46100 16.47936 4977 ft 268 kts 108°
2026-05-04 09:39 48.45235 16.50339 4975 ft 262 kts 136°
2026-05-04 09:39 48.43720 16.51798 4969 ft 258 kts 164°
2026-05-04 09:40 48.41930 16.51983 4969 ft 257 kts 191°
2026-05-04 09:40 48.40287 16.50944 4980 ft 257 kts 211°
2026-05-04 09:40 48.38816 16.49527 4973 ft 244 kts 211°
2026-05-04 09:40 48.37425 16.48211 4975 ft 227 kts 205°
2026-05-04 09:41 48.35931 16.47754 4971 ft 211 kts 175°
2026-05-04 09:42 48.25940 16.51944 3341 ft 208 kts 163°
2026-05-04 09:43 48.24561 16.52519 3066 ft 198 kts 163°
2026-05-04 09:43 48.23280 16.53054 2900 ft 181 kts 163°
2026-05-04 09:43 48.22096 16.53552 2649 ft 173 kts 162°
2026-05-04 09:43 48.20955 16.54031 2396 ft 169 kts 161°
2026-05-04 09:44 48.19836 16.54501 2154 ft 160 kts 161°
2026-05-04 09:44 48.18807 16.54935 1951 ft 146 kts 162°
2026-05-04 09:44 48.17867 16.55328 1745 ft 135 kts 161°
2026-05-04 09:46 48.11518 16.58015 593 ft 116 kts 164°
2026-05-04 09:46 48.11026 16.58230 595 ft 36 kts 164°
2026-05-04 09:46 48.10788 16.58289 598 ft 32 kts 184°
2026-05-04 09:47 48.10589 16.58239 600 ft 21 kts 201°
2026-05-04 09:47 48.10580 16.58130 601 ft 13 kts 336°
2026-05-04 09:49 48.11266 16.57391 601 ft 24 kts 298°
2026-05-04 09:49 48.11341 16.57152 606 ft 26 kts 295°
2026-05-04 09:49 48.11406 16.56949 605 ft 12 kts 295°
2026-05-04 09:51 48.11691 16.56848 604 ft 0 kts 26°